| time (UTC) | temp F | wind direction | speed MPH | gust MPH | rain 1hr in | rain 24hr in | rain mn in | humidity % | barometer mb |
| 20260507051517 | 60 | 11 | 0.0 | 1.0 | 0.00 | 0.01 | 0.00 | 47 | 1016.6 |
| 20260507050032 | 60 | 12 | 0.0 | 1.0 | 0.00 | 0.01 | 0.00 | 46 | 1016.5 |
| 20260507044515 | 60 | 9 | 0.0 | 1.0 | 0.00 | 0.01 | 0.01 | 47 | 1016.5 |
| 20260507043013 | 60 | 49 | 0.0 | 1.0 | 0.00 | 0.01 | 0.01 | 47 | 1016.6 |
| 20260507041522 | 60 | 23 | 0.0 | 0.0 | 0.00 | 0.01 | 0.01 | 48 | 1016.7 |
| 20260507040011 | 60 | 11 | 0.0 | 1.0 | 0.00 | 0.01 | 0.01 | 45 | 1016.8 |
| 20260507034506 | 60 | 15 | 0.0 | 1.0 | 0.00 | 0.01 | 0.01 | 44 | 1016.8 |
| 20260507033002 | 60 | 11 | 0.0 | 0.0 | 0.00 | 0.01 | 0.01 | 25 | 1016.7 |
| 20260507031558 | 60 | 1 | 0.0 | 1.0 | 0.00 | 0.01 | 0.01 | 25 | 1016.6 |
| 20260507030054 | 60 | 356 | 0.0 | 1.0 | 0.00 | 0.01 | 0.01 | 20 | 1016.5 |
| 20260507024548 | 60 | 306 | 0.0 | 1.0 | 0.00 | 0.01 | 0.01 | 13 | 1016.3 |
| 20260507023045 | 60 | 297 | 0.0 | 1.0 | 0.00 | 0.01 | 0.01 | 11 | 1015.9 |
| 20260507021543 | 60 | 22 | 0.0 | 1.0 | 0.00 | 0.01 | 0.01 | 6 | 1015.6 |
| 20260507020036 | 60 | 45 | 0.0 | 1.0 | 0.00 | 0.01 | 0.01 | 1 | 1015.2 |
| 20260507014530 | 60 | 20 | 0.0 | 1.0 | 0.00 | 0.01 | 0.01 | 1 | 1014.8 |
| 20260507013025 | 60 | 1 | 0.0 | 1.0 | 0.00 | 0.01 | 0.01 | 1 | 1014.5 |
| 20260507011523 | 60 | 203 | 0.0 | 1.0 | 0.00 | 0.01 | 0.01 | 1 | 1014.2 |
| 20260507010021 | 60 | 203 | 0.0 | 1.0 | 0.00 | 0.01 | 0.01 | 1 | 1014.1 |
| 20260507004517 | 61 | 205 | 0.0 | 0.0 | 0.00 | 0.01 | 0.01 | 1 | 1013.8 |
| 20260507003009 | 61 | 204 | 0.0 | 0.0 | 0.00 | 0.01 | 0.01 | 1 | 1013.7 |
| 20260507001508 | 61 | 348 | 0.0 | 0.0 | 0.00 | 0.01 | 0.01 | 1 | 1013.7 |
| 20260507000100 | 61 | 8 | 0.0 | 0.0 | 0.00 | 0.01 | 0.01 | 1 | 1013.4 |
| 20260506234559 | 61 | 8 | 0.0 | 0.0 | 0.00 | 0.01 | 0.01 | 1 | 1013.3 |
| 20260506233050 | 60 | 8 | 0.0 | 0.0 | 0.01 | 0.01 | 0.01 | 1 | 1013.1 |
| 20260506231604 | 60 | 7 | 0.0 | 0.0 | 0.01 | 0.01 | 0.01 | 1 | 1013.2 |
| 20260506224540 | 61 | 5 | 0.0 | 1.0 | 0.01 | 0.01 | 0.01 | 31 | 1013.0 |
| 20260506223032 | 62 | 4 | 0.0 | 1.0 | 0.00 | 0.00 | 0.00 | 53 | 1012.9 |
| 20260506221528 | 62 | 68 | 0.0 | 1.0 | 0.00 | 0.00 | 0.00 | 52 | 1012.7 |
| 20260506220033 | 62 | 335 | 0.0 | 1.0 | 0.00 | 0.00 | 0.00 | 53 | 1012.7 |
| 20260506214520 | 62 | 1 | 0.0 | 1.0 | 0.00 | 0.00 | 0.00 | 53 | 1012.8 |
| 20260506213015 | 62 | 6 | 0.0 | 1.0 | 0.00 | 0.00 | 0.00 | 52 | 1012.7 |
| 20260506211511 | 61 | 359 | 0.0 | 1.0 | 0.00 | 0.00 | 0.00 | 52 | 1012.7 |
| 20260506210007 | 61 | 19 | 0.0 | 1.0 | 0.00 | 0.00 | 0.00 | 52 | 1012.9 |
| 20260506204502 | 62 | 15 | 0.0 | 1.0 | 0.00 | 0.00 | 0.00 | 53 | 1013.1 |
| 20260506203058 | 62 | 19 | 0.0 | 1.0 | 0.00 | 0.00 | 0.00 | 50 | 1013.1 |
| 20260506201554 | 61 | 347 | 0.0 | 1.0 | 0.00 | 0.00 | 0.00 | 49 | 1013.4 |
| 20260506200049 | 60 | 358 | 0.0 | 1.0 | 0.00 | 0.00 | 0.00 | 42 | 1013.6 |
| 20260506194545 | 59 | 314 | 0.0 | 1.0 | 0.00 | 0.00 | 0.00 | 36 | 1013.8 |
| 20260506193040 | 58 | 4 | 0.0 | 1.0 | 0.00 | 0.00 | 0.00 | 28 | 1014.0 |
| 20260506191539 | 58 | 1 | 0.0 | 1.0 | 0.00 | 0.00 | 0.00 | 26 | 1014.2 |
| 20260506190034 | 58 | 1 | 0.0 | 1.0 | 0.00 | 0.00 | 0.00 | 27 | 1014.3 |
| 20260506184532 | 58 | 47 | 0.0 | 0.0 | 0.00 | 0.00 | 0.00 | 26 | 1014.3 |
| 20260506183025 | 58 | 48 | 0.0 | 1.0 | 0.00 | 0.00 | 0.00 | 22 | 1014.2 |
| 20260506181521 | 57 | 63 | 0.0 | 1.0 | 0.00 | 0.00 | 0.00 | 20 | 1013.3 |
| 20260506180023 | 57 | 6 | 0.0 | 2.0 | 0.00 | 0.00 | 0.00 | 6 | 1012.5 |
| 20260506174522 | 56 | 11 | 0.0 | 3.0 | 0.00 | 0.00 | 0.00 | 1 | 1012.8 |
| 20260506173008 | 55 | 9 | 0.0 | 1.0 | 0.00 | 0.00 | 0.00 | 1 | 1013.7 |
| 20260506171504 | 55 | 22 | 0.0 | 2.0 | 0.00 | 0.00 | 0.00 | 1 | 1013.5 |
| 20260506164555 | 55 | 356 | 0.0 | 1.0 | 0.00 | 0.00 | 0.00 | 1 | 1013.7 |
| 20260506163050 | 55 | 15 | 0.0 | 1.0 | 0.00 | 0.00 | 0.00 | 1 | 1013.6 |
| 20260506161546 | 55 | 15 | 0.0 | 2.0 | 0.00 | 0.00 | 0.00 | 1 | 1013.7 |
| 20260506160054 | 55 | 40 | 0.0 | 1.0 | 0.00 | 0.00 | 0.00 | 1 | 1013.7 |
| 20260506154537 | 55 | 15 | 0.0 | 1.0 | 0.00 | 0.00 | 0.00 | 1 | 1013.4 |
| 20260506153035 | 54 | 20 | 0.0 | 1.0 | 0.00 | 0.00 | 0.00 | 1 | 1012.4 |
| 20260506151535 | 54 | 23 | 0.0 | 1.0 | 0.00 | 0.00 | 0.00 | 3 | 1015.1 |
| 20260506150028 | 55 | 233 | 0.0 | 1.0 | 0.00 | 0.00 | 0.00 | 24 | 1015.1 |
| 20260506144525 | 55 | 201 | 0.0 | 1.0 | 0.00 | 0.00 | 0.00 | 33 | 1014.8 |
| 20260506143021 | 55 | 342 | 0.0 | 2.0 | 0.00 | 0.00 | 0.00 | 40 | 1013.0 |
| 20260506141520 | 55 | 20 | 0.0 | 1.0 | 0.00 | 0.00 | 0.00 | 41 | 1013.4 |
| 20260506140025 | 55 | 13 | 0.0 | 2.0 | 0.00 | 0.00 | 0.00 | 44 | 1013.3 |
| 20260506134515 | 56 | 6 | 0.0 | 1.0 | 0.00 | 0.00 | 0.00 | 47 | 1012.9 |
| 20260506133016 | 56 | 338 | 0.0 | 1.0 | 0.00 | 0.00 | 0.00 | 50 | 1012.8 |
| 20260506131515 | 56 | 352 | 0.0 | 2.0 | 0.00 | 0.00 | 0.00 | 53 | 1012.6 |
| 20260506130009 | 56 | 342 | 0.0 | 2.0 | 0.00 | 0.00 | 0.00 | 57 | 1012.0 |
| 20260506124507 | 56 | 1 | 0.0 | 1.0 | 0.00 | 0.00 | 0.00 | 59 | 1012.2 |
| 20260506123005 | 57 | 15 | 0.0 | 1.0 | 0.00 | 0.00 | 0.00 | 59 | 1011.9 |
| 20260506121601 | 57 | 5 | 0.0 | 2.0 | 0.00 | 0.00 | 0.00 | 60 | 1011.5 |
| 20260506114558 | 57 | 347 | 0.0 | 1.0 | 0.00 | 0.00 | 0.00 | 60 | 1011.5 |
| 20260506113053 | 58 | 340 | 0.0 | 1.0 | 0.00 | 0.00 | 0.00 | 59 | 1011.0 |
| 20260506111551 | 58 | 4 | 0.0 | 1.0 | 0.00 | 0.00 | 0.00 | 59 | 1010.7 |
| 20260506110049 | 58 | 350 | 0.0 | 1.0 | 0.00 | 0.00 | 0.00 | 59 | 1010.7 |
| 20260506104548 | 59 | 344 | 0.0 | 1.0 | 0.00 | 0.00 | 0.00 | 58 | 1010.4 |
| 20260506103044 | 59 | 15 | 0.0 | 2.0 | 0.00 | 0.00 | 0.00 | 59 | 1010.0 |
| 20260506101544 | 60 | 354 | 0.0 | 1.0 | 0.00 | 0.00 | 0.00 | 58 | 1009.7 |
| 20260506100042 | 60 | 349 | 0.0 | 1.0 | 0.00 | 0.00 | 0.00 | 57 | 1009.5 |
| 20260506094536 | 60 | 330 | 0.0 | 1.0 | 0.00 | 0.00 | 0.00 | 58 | 1009.4 |
| 20260506093032 | 61 | 354 | 0.0 | 1.0 | 0.00 | 0.00 | 0.00 | 57 | 1009.2 |
| 20260506091532 | 61 | 356 | 0.0 | 1.0 | 0.00 | 0.00 | 0.00 | 57 | 1009.2 |
| 20260506090030 | 61 | 356 | 0.0 | 1.0 | 0.00 | 0.00 | 0.00 | 57 | 1009.0 |
| 20260506084529 | 62 | 6 | 0.0 | 1.0 | 0.00 | 0.00 | 0.00 | 56 | 1009.0 |
| 20260506083027 | 62 | 9 | 0.0 | 1.0 | 0.00 | 0.00 | 0.00 | 57 | 1008.7 |
| 20260506081524 | 62 | 11 | 0.0 | 1.0 | 0.00 | 0.00 | 0.00 | 56 | 1008.8 |
| 20260506073021 | 63 | 26 | 0.0 | 1.0 | 0.00 | 0.00 | 0.00 | 53 | 1008.4 |
| 20260506071520 | 63 | 359 | 0.0 | 1.0 | 0.00 | 0.00 | 0.00 | 52 | 1008.4 |
| 20260506061514 | 64 | 13 | 0.0 | 1.0 | 0.00 | 0.00 | 0.00 | 55 | 1008.4 |